地点,時刻,積雪(cm)
川内野平,2022/02/26 23:00,117
川内野平,2022/02/27 00:00,117
川内野平,2022/02/27 01:00,116
川内野平,2022/02/27 02:00,116
川内野平,2022/02/27 03:00,116
川内野平,2022/02/27 04:00,116
川内野平,2022/02/27 05:00,115
川内野平,2022/02/27 06:00,115
川内野平,2022/02/27 07:00,115
川内野平,2022/02/27 09:00,115
川内野平,2022/02/27 10:00,114
川内野平,2022/02/27 11:00,115
川内野平,2022/02/27 12:00,116
川内野平,2022/02/27 13:00,116
川内野平,2022/02/27 14:00,117
川内野平,2022/02/27 15:00,117
川内野平,2022/02/27 17:00,118
川内野平,2022/02/27 18:00,120
川内野平,2022/02/27 19:00,117
川内野平,2022/02/27 20:00,116
川内野平,2022/02/27 21:00,116
川内野平,2022/02/27 22:00,116
川内野平,2022/02/27 23:00,116
川内野平,2022/02/28 00:00,117
川内野平,2022/02/28 01:00,118
川内野平,2022/02/28 02:00,120
川内野平,2022/02/28 03:00,120
川内野平,2022/02/28 04:00,120
川内野平,2022/02/28 05:00,120
川内野平,2022/02/28 06:00,119
川内野平,2022/02/28 07:00,119
川内野平,2022/02/28 08:00,121
川内野平,2022/02/28 09:00,120
川内野平,2022/02/28 10:00,120
川内野平,2022/02/28 11:00,119
川内野平,2022/02/28 12:00,119
川内野平,2022/02/28 13:00,118
川内野平,2022/02/28 14:00,118
川内野平,2022/02/28 15:00,118
川内野平,2022/02/28 16:00,118
川内野平,2022/02/28 17:00,118
川内野平,2022/02/28 18:00,117
川内野平,2022/02/28 19:00,117
川内野平,2022/02/28 20:00,117
川内野平,2022/02/28 21:00,117
川内野平,2022/02/28 22:00,117
川内野平,2022/02/28 23:00,117
川内野平,2022/03/01 00:00,117
川内野平,2022/03/01 01:00,117
川内野平,2022/03/01 02:00,117
川内野平,2022/03/01 03:00,117
川内野平,2022/03/01 04:00,117
川内野平,2022/03/01 09:00,116
川内野平,2022/03/01 10:00,116
川内野平,2022/03/01 11:00,116
川内野平,2022/03/01 12:00,115
川内野平,2022/03/01 13:00,116
川内野平,2022/03/01 14:00,115
川内野平,2022/03/01 15:00,114
川内野平,2022/03/01 16:00,113
川内野平,2022/03/01 17:00,113
川内野平,2022/03/01 19:00,112
川内野平,2022/03/01 20:00,112
川内野平,2022/03/01 21:00,112
川内野平,2022/03/01 22:00,112
川内野平,2022/03/01 23:00,112
川内野平,2022/03/02 00:00,112
川内野平,2022/03/02 01:00,112
川内野平,2022/03/02 02:00,112
川内野平,2022/03/02 03:00,112
川内野平,2022/03/02 04:00,112
川内野平,2022/03/02 05:00,112
川内野平,2022/03/02 06:00,112
川内野平,2022/03/02 07:00,112
川内野平,2022/03/02 08:00,112
川内野平,2022/03/02 09:00,112
川内野平,2022/03/02 10:00,112
川内野平,2022/03/02 11:00,113
川内野平,2022/03/02 12:00,112
川内野平,2022/03/02 13:00,113
川内野平,2022/03/02 14:00,112
川内野平,2022/03/02 15:00,113
川内野平,2022/03/02 16:00,113
川内野平,2022/03/02 18:00,113
川内野平,2022/03/02 19:00,113
川内野平,2022/03/02 20:00,113
川内野平,2022/03/02 21:00,113
川内野平,2022/03/02 22:00,113
川内野平,2022/03/02 23:00,113
川内野平,2022/03/03 01:00,113
川内野平,2022/03/03 02:00,113
川内野平,2022/03/03 03:00,113
川内野平,2022/03/03 04:00,113
川内野平,2022/03/03 05:00,112
川内野平,2022/03/03 06:00,112
川内野平,2022/03/03 07:00,113
川内野平,2022/03/03 08:00,113
川内野平,2022/03/03 09:00,117
川内野平,2022/03/03 10:00,117
川内野平,2022/03/03 11:00,116
川内野平,2022/03/03 12:00,116
川内野平,2022/03/03 13:00,118
川内野平,2022/03/03 14:00,119
川内野平,2022/03/03 15:00,119
川内野平,2022/03/03 16:00,118
川内野平,2022/03/03 17:00,118
川内野平,2022/03/03 18:00,119
川内野平,2022/03/03 19:00,119
川内野平,2022/03/03 20:00,119
川内野平,2022/03/03 21:00,119
川内野平,2022/03/03 22:00,119
川内野平,2022/03/03 23:00,119
川内野平,2022/03/04 00:00,119
川内野平,2022/03/04 01:00,119
川内野平,2022/03/04 02:00,119
川内野平,2022/03/04 04:00,119
川内野平,2022/03/04 05:00,119
川内野平,2022/03/04 06:00,118
川内野平,2022/03/04 07:00,118
川内野平,2022/03/04 08:00,118
川内野平,2022/03/04 09:00,118
川内野平,2022/03/04 10:00,118
川内野平,2022/03/04 11:00,118
川内野平,2022/03/04 12:00,118
川内野平,2022/03/04 13:00,118
川内野平,2022/03/04 14:00,117
川内野平,2022/03/04 15:00,117
川内野平,2022/03/04 16:00,117
川内野平,2022/03/04 17:00,116
川内野平,2022/03/04 18:00,116
川内野平,2022/03/04 19:00,116
川内野平,2022/03/04 20:00,116
川内野平,2022/03/04 21:00,116
川内野平,2022/03/04 22:00,116
川内野平,2022/03/04 23:00,116
川内野平,2022/03/05 00:00,116
川内野平,2022/03/05 01:00,116
川内野平,2022/03/05 02:00,116
川内野平,2022/03/05 03:00,116
川内野平,2022/03/05 04:00,116
川内野平,2022/03/05 05:00,116
川内野平,2022/03/05 06:00,116
川内野平,2022/03/05 07:00,116
川内野平,2022/03/05 08:00,116
川内野平,2022/03/05 09:00,116
川内野平,2022/03/05 11:00,115
川内野平,2022/03/05 12:00,115
川内野平,2022/03/05 13:00,115
川内野平,2022/03/05 14:00,115
川内野平,2022/03/05 15:00,115
川内野平,2022/03/05 16:00,114
川内野平,2022/03/05 17:00,114
川内野平,2022/03/05 18:00,114
川内野平,2022/03/05 19:00,114
川内野平,2022/03/05 20:00,114
川内野平,2022/03/05 21:00,114
川内野平,2022/03/05 22:00,114
川内野平,2022/03/05 23:00,115
川内野平,2022/03/06 00:00,115
川内野平,2022/03/06 01:00,115
川内野平,2022/03/06 02:00,115
川内野平,2022/03/06 03:00,115
川内野平,2022/03/06 04:00,116
川内野平,2022/03/06 05:00,118
川内野平,2022/03/06 06:00,119
川内野平,2022/03/06 07:00,120
川内野平,2022/03/06 08:00,122
川内野平,2022/03/06 10:00,124
川内野平,2022/03/06 11:00,124
川内野平,2022/03/06 12:00,127
川内野平,2022/03/06 13:00,128
川内野平,2022/03/06 14:00,128
川内野平,2022/03/06 15:00,128
川内野平,2022/03/06 16:00,128
川内野平,2022/03/06 17:00,127
川内野平,2022/03/06 18:00,127
川内野平,2022/03/06 19:00,128
川内野平,2022/03/06 20:00,127
川内野平,2022/03/06 21:00,127
川内野平,2022/03/06 22:00,127
川内野平,2022/03/06 23:00,127
川内野平,2022/03/07 00:00,127
川内野平,2022/03/07 01:00,126
川内野平,2022/03/07 02:00,126
川内野平,2022/03/07 03:00,126
川内野平,2022/03/07 04:00,126
川内野平,2022/03/07 05:00,126
川内野平,2022/03/07 06:00,126
川内野平,2022/03/07 07:00,126
川内野平,2022/03/07 08:00,126
川内野平,2022/03/07 09:00,125
川内野平,2022/03/07 10:00,125
川内野平,2022/03/07 11:00,125
川内野平,2022/03/07 12:00,124
川内野平,2022/03/07 13:00,123
川内野平,2022/03/07 14:00,122
川内野平,2022/03/07 15:00,122
川内野平,2022/03/07 16:00,121
川内野平,2022/03/07 17:00,121
川内野平,2022/03/07 18:00,120
川内野平,2022/03/07 19:00,120
川内野平,2022/03/07 20:00,120
川内野平,2022/03/07 22:00,121
川内野平,2022/03/07 23:00,121
川内野平,2022/03/08 00:00,121
川内野平,2022/03/08 01:00,121
川内野平,2022/03/08 02:00,121
川内野平,2022/03/08 03:00,121
川内野平,2022/03/08 04:00,120
川内野平,2022/03/08 05:00,120
川内野平,2022/03/08 06:00,120
川内野平,2022/03/08 09:00,120
川内野平,2022/03/08 13:00,119
川内野平,2022/03/08 14:00,119
川内野平,2022/03/08 15:00,118
川内野平,2022/03/08 16:00,118
川内野平,2022/03/08 17:00,118
川内野平,2022/03/08 18:00,118
川内野平,2022/03/08 19:00,118
川内野平,2022/03/08 20:00,118
川内野平,2022/03/08 21:00,119
川内野平,2022/03/08 22:00,118
川内野平,2022/03/08 23:00,118
川内野平,2022/03/09 00:00,118
川内野平,2022/03/09 01:00,118
川内野平,2022/03/09 02:00,118
川内野平,2022/03/09 03:00,118
川内野平,2022/03/09 04:00,118
川内野平,2022/03/09 05:00,118
川内野平,2022/03/09 06:00,118
川内野平,2022/03/09 07:00,118
川内野平,2022/03/09 08:00,117
川内野平,2022/03/09 09:00,117
川内野平,2022/03/09 10:00,117
川内野平,2022/03/09 11:00,117
川内野平,2022/03/09 12:00,116
川内野平,2022/03/09 13:00,116
川内野平,2022/03/09 14:00,115
川内野平,2022/03/09 15:00,115
川内野平,2022/03/09 16:00,115
川内野平,2022/03/09 17:00,115
川内野平,2022/03/09 18:00,115
川内野平,2022/03/09 19:00,115
川内野平,2022/03/09 20:00,115
川内野平,2022/03/09 22:00,115
川内野平,2022/03/09 23:00,115
川内野平,2022/03/10 00:00,115
川内野平,2022/03/10 01:00,115
川内野平,2022/03/10 02:00,115
川内野平,2022/03/10 04:00,115
川内野平,2022/03/10 05:00,115
川内野平,2022/03/10 06:00,115
川内野平,2022/03/10 07:00,115
川内野平,2022/03/10 08:00,115
川内野平,2022/03/10 09:00,115
川内野平,2022/03/10 10:00,114
川内野平,2022/03/10 11:00,114
川内野平,2022/03/10 12:00,114
川内野平,2022/03/10 13:00,113
川内野平,2022/03/10 14:00,112
川内野平,2022/03/10 15:00,112
川内野平,2022/03/10 16:00,111
川内野平,2022/03/10 17:00,112
川内野平,2022/03/10 18:00,112
川内野平,2022/03/10 19:00,112
川内野平,2022/03/10 20:00,112
川内野平,2022/03/10 21:00,112
川内野平,2022/03/10 22:00,112
川内野平,2022/03/10 23:00,112
川内野平,2022/03/11 00:00,112
川内野平,2022/03/11 01:00,112
川内野平,2022/03/11 02:00,112
川内野平,2022/03/11 03:00,112
川内野平,2022/03/11 04:00,112
川内野平,2022/03/11 05:00,112
川内野平,2022/03/11 06:00,112
川内野平,2022/03/11 07:00,112
川内野平,2022/03/11 08:00,112
川内野平,2022/03/11 09:00,111
川内野平,2022/03/11 10:00,111
川内野平,2022/03/11 11:00,111
川内野平,2022/03/11 14:00,109
川内野平,2022/03/11 15:00,108
川内野平,2022/03/11 16:00,108
川内野平,2022/03/11 17:00,108
川内野平,2022/03/11 18:00,108
川内野平,2022/03/11 19:00,108
川内野平,2022/03/11 20:00,108
川内野平,2022/03/11 21:00,107
川内野平,2022/03/12 00:00,107
川内野平,2022/03/12 01:00,107
川内野平,2022/03/12 02:00,106
川内野平,2022/03/12 03:00,106
川内野平,2022/03/12 04:00,106
川内野平,2022/03/12 05:00,106
川内野平,2022/03/12 06:00,106
川内野平,2022/03/12 07:00,106
川内野平,2022/03/12 08:00,105
川内野平,2022/03/12 09:00,105
川内野平,2022/03/12 10:00,104
川内野平,2022/03/12 11:00,104
川内野平,2022/03/12 12:00,104
川内野平,2022/03/12 13:00,103
川内野平,2022/03/12 15:00,103
川内野平,2022/03/12 16:00,103
川内野平,2022/03/12 17:00,102
川内野平,2022/03/12 18:00,102
川内野平,2022/03/12 19:00,102
川内野平,2022/03/12 20:00,102
川内野平,2022/03/12 21:00,102
川内野平,2022/03/12 22:00,102
川内野平,2022/03/12 23:00,102
川内野平,2022/03/13 00:00,102
川内野平,2022/03/13 01:00,102
川内野平,2022/03/13 03:00,102
川内野平,2022/03/13 04:00,102
川内野平,2022/03/13 05:00,102
川内野平,2022/03/13 06:00,102
川内野平,2022/03/13 07:00,102
川内野平,2022/03/13 08:00,102
川内野平,2022/03/13 09:00,102
川内野平,2022/03/13 10:00,102
川内野平,2022/03/13 11:00,101
川内野平,2022/03/13 12:00,101
川内野平,2022/03/13 15:00,100
川内野平,2022/03/13 16:00,100
川内野平,2022/03/13 17:00,100
川内野平,2022/03/13 18:00,100
川内野平,2022/03/13 21:00,100
川内野平,2022/03/13 22:00,100
川内野平,2022/03/13 23:00,100
川内野平,2022/03/14 00:00,100
川内野平,2022/03/14 02:00,100
川内野平,2022/03/14 03:00,99
川内野平,2022/03/14 04:00,99
川内野平,2022/03/14 05:00,99
川内野平,2022/03/14 06:00,99
川内野平,2022/03/14 07:00,99
川内野平,2022/03/14 09:00,99
川内野平,2022/03/14 10:00,99
川内野平,2022/03/14 12:00,98
川内野平,2022/03/14 13:00,97
川内野平,2022/03/14 14:00,97
川内野平,2022/03/14 15:00,97
川内野平,2022/03/14 16:00,96
川内野平,2022/03/14 17:00,96
川内野平,2022/03/14 18:00,96
川内野平,2022/03/14 19:00,96
川内野平,2022/03/14 20:00,96
川内野平,2022/03/14 21:00,96
川内野平,2022/03/14 22:00,95
川内野平,2022/03/14 23:00,95
川内野平,2022/03/15 00:00,96
川内野平,2022/03/15 01:00,95
川内野平,2022/03/15 02:00,95
川内野平,2022/03/15 03:00,95
川内野平,2022/03/15 04:00,95
川内野平,2022/03/15 05:00,97
川内野平,2022/03/15 06:00,102
川内野平,2022/03/15 07:00,100
川内野平,2022/03/15 08:00,99
川内野平,2022/03/15 09:00,99
川内野平,2022/03/15 10:00,98
川内野平,2022/03/15 11:00,98
川内野平,2022/03/15 12:00,97
川内野平,2022/03/15 13:00,97
川内野平,2022/03/15 15:00,95
川内野平,2022/03/15 16:00,95
川内野平,2022/03/15 17:00,95
川内野平,2022/03/15 18:00,95
川内野平,2022/03/15 20:00,92
川内野平,2022/03/15 21:00,92
川内野平,2022/03/15 22:00,92
川内野平,2022/03/15 23:00,92
川内野平,2022/03/16 00:00,92
川内野平,2022/03/16 01:00,92
川内野平,2022/03/16 02:00,92
川内野平,2022/03/16 03:00,92
川内野平,2022/03/16 04:00,92
川内野平,2022/03/16 05:00,92
川内野平,2022/03/16 06:00,92
川内野平,2022/03/16 07:00,92
川内野平,2022/03/16 08:00,92
川内野平,2022/03/16 09:00,92
川内野平,2022/03/16 10:00,92
川内野平,2022/03/16 11:00,91
川内野平,2022/03/16 12:00,91
川内野平,2022/03/16 13:00,91
川内野平,2022/03/16 14:00,91
川内野平,2022/03/16 15:00,90
川内野平,2022/03/16 16:00,90
川内野平,2022/03/16 17:00,90
川内野平,2022/03/16 18:00,90
川内野平,2022/03/16 19:00,90
川内野平,2022/03/16 20:00,90
川内野平,2022/03/16 21:00,90
川内野平,2022/03/16 22:00,90
川内野平,2022/03/16 23:00,90
川内野平,2022/03/17 00:00,90
川内野平,2022/03/17 01:00,90
川内野平,2022/03/17 02:00,90
川内野平,2022/03/17 03:00,91
川内野平,2022/03/17 04:00,92
川内野平,2022/03/17 05:00,92
川内野平,2022/03/17 06:00,92
川内野平,2022/03/17 07:00,92
川内野平,2022/03/17 08:00,92
川内野平,2022/03/17 09:00,93
川内野平,2022/03/17 10:00,92
川内野平,2022/03/17 11:00,90
川内野平,2022/03/17 12:00,90
川内野平,2022/03/17 13:00,89
川内野平,2022/03/17 14:00,88
川内野平,2022/03/17 15:00,88
川内野平,2022/03/17 16:00,88
川内野平,2022/03/17 18:00,88
川内野平,2022/03/17 20:00,87
川内野平,2022/03/17 21:00,89
川内野平,2022/03/17 22:00,89
川内野平,2022/03/17 23:00,89
川内野平,2022/03/18 01:00,89
川内野平,2022/03/18 03:00,89
川内野平,2022/03/18 04:00,89
川内野平,2022/03/18 05:00,89
川内野平,2022/03/18 09:00,88
川内野平,2022/03/18 10:00,88
川内野平,2022/03/18 11:00,88
川内野平,2022/03/18 13:00,88
川内野平,2022/03/18 14:00,87
川内野平,2022/03/18 15:00,87
川内野平,2022/03/18 16:00,87
川内野平,2022/03/18 17:00,86
川内野平,2022/03/18 18:00,86
川内野平,2022/03/18 19:00,86
川内野平,2022/03/18 20:00,86
川内野平,2022/03/18 21:00,86
川内野平,2022/03/18 22:00,87
川内野平,2022/03/18 23:00,87
川内野平,2022/03/19 00:00,88
川内野平,2022/03/19 01:00,89
川内野平,2022/03/19 02:00,91
川内野平,2022/03/19 03:00,92
川内野平,2022/03/19 04:00,94
川内野平,2022/03/19 05:00,96
川内野平,2022/03/19 06:00,97
川内野平,2022/03/19 07:00,96
川内野平,2022/03/19 08:00,93
川内野平,2022/03/19 09:00,93
川内野平,2022/03/19 10:00,93
川内野平,2022/03/19 11:00,94
川内野平,2022/03/19 12:00,93
川内野平,2022/03/19 13:00,92
川内野平,2022/03/19 14:00,92
川内野平,2022/03/19 15:00,91
川内野平,2022/03/19 16:00,91
川内野平,2022/03/19 17:00,91
川内野平,2022/03/19 18:00,90
川内野平,2022/03/19 19:00,90
川内野平,2022/03/19 20:00,90
川内野平,2022/03/20 01:00,90
川内野平,2022/03/20 02:00,90
川内野平,2022/03/20 03:00,90
川内野平,2022/03/20 04:00,90
川内野平,2022/03/20 05:00,90
川内野平,2022/03/20 06:00,90
川内野平,2022/03/20 07:00,90
川内野平,2022/03/20 08:00,90
川内野平,2022/03/20 09:00,90
川内野平,2022/03/20 10:00,90
川内野平,2022/03/20 12:00,88
川内野平,2022/03/20 13:00,88
川内野平,2022/03/20 14:00,88
川内野平,2022/03/20 15:00,88
川内野平,2022/03/20 16:00,88
川内野平,2022/03/20 17:00,88
川内野平,2022/03/20 18:00,88
川内野平,2022/03/20 19:00,88
川内野平,2022/03/20 20:00,88
川内野平,2022/03/20 21:00,90
川内野平,2022/03/20 22:00,90
川内野平,2022/03/20 23:00,90
川内野平,2022/03/21 02:00,90
川内野平,2022/03/21 03:00,93
川内野平,2022/03/21 04:00,93
川内野平,2022/03/21 05:00,93
川内野平,2022/03/21 06:00,92
川内野平,2022/03/21 07:00,92
川内野平,2022/03/21 09:00,92
川内野平,2022/03/21 10:00,92
川内野平,2022/03/21 11:00,92
川内野平,2022/03/21 12:00,92
川内野平,2022/03/21 13:00,92
川内野平,2022/03/21 14:00,93
川内野平,2022/03/21 15:00,93
川内野平,2022/03/21 16:00,95
川内野平,2022/03/21 17:00,95
川内野平,2022/03/21 18:00,95
川内野平,2022/03/21 19:00,95
川内野平,2022/03/21 20:00,95
川内野平,2022/03/21 21:00,95
川内野平,2022/03/21 23:00,95
川内野平,2022/03/22 00:00,94
川内野平,2022/03/22 01:00,94
川内野平,2022/03/22 02:00,94
川内野平,2022/03/22 03:00,94
川内野平,2022/03/22 04:00,94
川内野平,2022/03/22 05:00,94
川内野平,2022/03/22 06:00,94
川内野平,2022/03/22 07:00,94
川内野平,2022/03/22 08:00,94
川内野平,2022/03/22 09:00,94
川内野平,2022/03/22 11:00,93
川内野平,2022/03/22 13:00,92
川内野平,2022/03/22 14:00,91
川内野平,2022/03/22 15:00,91
川内野平,2022/03/22 16:00,91
川内野平,2022/03/22 17:00,91
川内野平,2022/03/22 18:00,91
川内野平,2022/03/22 19:00,91
川内野平,2022/03/22 20:00,91
川内野平,2022/03/22 21:00,91
川内野平,2022/03/22 22:00,91
川内野平,2022/03/22 23:00,91
川内野平,2022/03/23 00:00,91
川内野平,2022/03/23 01:00,91
川内野平,2022/03/23 02:00,90
川内野平,2022/03/23 03:00,90
川内野平,2022/03/23 04:00,90
川内野平,2022/03/23 05:00,91
川内野平,2022/03/23 06:00,90
川内野平,2022/03/23 07:00,90
川内野平,2022/03/23 09:00,90
川内野平,2022/03/23 10:00,90
川内野平,2022/03/23 11:00,90
川内野平,2022/03/23 13:00,89
川内野平,2022/03/23 17:00,89
川内野平,2022/03/23 21:00,89
川内野平,2022/03/23 22:00,89
川内野平,2022/03/24 00:00,89
川内野平,2022/03/24 06:00,89
川内野平,2022/03/24 08:00,90
川内野平,2022/03/24 09:00,90
川内野平,2022/03/24 13:00,87
川内野平,2022/03/24 14:00,86
川内野平,2022/03/24 15:00,86
川内野平,2022/03/24 17:00,86
川内野平,2022/03/24 22:00,86
川内野平,2022/03/24 23:00,86
川内野平,2022/03/25 00:00,86
川内野平,2022/03/25 02:00,86
川内野平,2022/03/25 05:00,86
川内野平,2022/03/25 07:00,86
川内野平,2022/03/25 09:00,86
川内野平,2022/04/08 15:00,24
川内野平,2022/04/08 16:00,24
川内野平,2022/04/08 17:00,24
川内野平,2022/04/08 19:00,24
川内野平,2022/04/08 20:00,24
川内野平,2022/04/08 21:00,24
川内野平,2022/04/08 22:00,24
川内野平,2022/04/08 23:00,24
川内野平,2022/04/09 00:00,24
川内野平,2022/04/09 01:00,24
川内野平,2022/04/09 03:00,24
川内野平,2022/04/09 04:00,24
川内野平,2022/04/09 05:00,24
川内野平,2022/04/09 06:00,24
川内野平,2022/04/09 07:00,24
川内野平,2022/04/09 08:00,24
川内野平,2022/04/09 09:00,23
川内野平,2022/04/09 10:00,23
川内野平,2022/04/09 11:00,22
川内野平,2022/04/09 12:00,19
川内野平,2022/04/09 13:00,19
川内野平,2022/04/09 15:00,19
川内野平,2022/04/09 16:00,19
川内野平,2022/04/09 17:00,18
川内野平,2022/04/09 18:00,18
川内野平,2022/04/09 19:00,18
川内野平,2022/04/09 20:00,17
川内野平,2022/04/09 21:00,17
川内野平,2022/04/09 22:00,16
川内野平,2022/04/09 23:00,15
川内野平,2022/04/10 00:00,14
川内野平,2022/04/10 01:00,14
川内野平,2022/04/10 02:00,14
川内野平,2022/04/10 03:00,14
川内野平,2022/04/10 04:00,14
川内野平,2022/04/10 05:00,14
川内野平,2022/04/10 06:00,14
川内野平,2022/04/10 07:00,14
川内野平,2022/04/10 08:00,14
川内野平,2022/04/10 09:00,14
川内野平,2022/04/10 10:00,13
川内野平,2022/04/10 11:00,13
川内野平,2022/04/10 13:00,10
川内野平,2022/04/10 15:00,10
川内野平,2022/04/10 16:00,9
川内野平,2022/04/10 17:00,9
川内野平,2022/04/10 18:00,9
川内野平,2022/04/10 19:00,9
川内野平,2022/04/10 21:00,9
川内野平,2022/04/10 22:00,9
川内野平,2022/04/10 23:00,9
川内野平,2022/04/11 01:00,9
川内野平,2022/04/11 02:00,9
川内野平,2022/04/11 03:00,9
川内野平,2022/04/11 04:00,9
川内野平,2022/04/11 05:00,9
川内野平,2022/04/11 06:00,9
川内野平,2022/04/11 07:00,9
川内野平,2022/04/11 08:00,8
川内野平,2022/04/11 09:00,8
川内野平,2022/04/11 10:00,7
川内野平,2022/04/11 11:00,7
川内野平,2022/04/11 13:00,2
川内野平,2022/04/11 14:00,0
川内野平,2022/04/11 15:00,0
川内野平,2022/04/11 16:00,0
川内野平,2022/04/11 17:00,0
川内野平,2022/04/11 18:00,0
川内野平,2022/04/11 19:00,0
川内野平,2022/04/11 21:00,0
川内野平,2022/04/11 22:00,0
川内野平,2022/04/11 23:00,0
川内野平,2022/04/12 00:00,0
川内野平,2022/04/12 01:00,0
川内野平,2022/04/12 02:00,0
川内野平,2022/04/12 03:00,0
川内野平,2022/04/12 04:00,0
川内野平,2022/04/12 06:00,0
川内野平,2022/04/12 07:00,0
川内野平,2022/04/12 08:00,0
川内野平,2022/04/12 09:00,0
川内野平,2022/04/12 10:00,0
川内野平,2022/04/12 12:00,0
川内野平,2022/04/12 14:00,0
川内野平,2022/04/12 16:00,0
川内野平,2022/04/12 17:00,0
川内野平,2022/04/12 18:00,0
川内野平,2022/04/12 20:00,0
川内野平,2022/04/12 22:00,0
川内野平,2022/04/13 01:00,0
川内野平,2022/04/13 02:00,0
川内野平,2022/04/13 03:00,0
川内野平,2022/04/13 04:00,0
川内野平,2022/04/13 05:00,0
川内野平,2022/04/13 06:00,0
川内野平,2022/04/13 07:00,0
川内野平,2022/04/13 08:00,0
川内野平,2022/04/13 09:00,0
川内野平,2022/04/13 10:00,0
川内野平,2022/04/13 11:00,0
川内野平,2022/04/13 12:00,0
川内野平,2022/04/13 13:00,0
川内野平,2022/04/13 14:00,0
川内野平,2022/04/13 15:00,0
川内野平,2022/04/13 16:00,0
川内野平,2022/04/13 17:00,0
川内野平,2022/04/13 18:00,0
川内野平,2022/04/13 19:00,0
川内野平,2022/04/13 20:00,0
川内野平,2022/04/13 21:00,0
川内野平,2022/04/13 22:00,0
川内野平,2022/04/13 23:00,0
川内野平,2022/04/14 00:00,0
川内野平,2022/04/14 01:00,0
川内野平,2022/04/14 02:00,0
川内野平,2022/04/14 03:00,0
川内野平,2022/04/14 04:00,0
川内野平,2022/04/14 05:00,0
川内野平,2022/04/14 06:00,0
川内野平,2022/04/14 09:00,0
川内野平,2022/04/14 10:00,0
川内野平,2022/04/14 12:00,0
川内野平,2022/04/14 14:00,0
川内野平,2022/04/14 15:00,0
川内野平,2022/04/14 16:00,0
川内野平,2022/04/14 19:00,0
川内野平,2022/04/14 21:00,0
川内野平,2022/04/14 22:00,0
川内野平,2022/04/14 23:00,0
川内野平,2022/04/15 00:00,0
川内野平,2022/04/15 01:00,0
川内野平,2022/04/15 02:00,0
川内野平,2022/04/15 03:00,0
川内野平,2022/04/15 04:00,0
川内野平,2022/04/15 05:00,0
川内野平,2022/04/15 06:00,0
川内野平,2022/04/15 07:00,0
川内野平,2022/04/15 08:00,0
川内野平,2022/04/15 09:00,0
川内野平,2022/04/15 10:00,0
川内野平,2022/04/15 11:00,0
川内野平,2022/04/15 12:00,0
川内野平,2022/04/15 13:00,0
川内野平,2022/04/15 14:00,0
川内野平,2022/04/15 15:00,0
川内野平,2022/04/15 16:00,0
川内野平,2022/04/15 18:00,0
川内野平,2022/04/15 19:00,0
川内野平,2022/04/15 20:00,0
川内野平,2022/04/16 00:00,0
川内野平,2022/04/16 01:00,0
川内野平,2022/04/16 03:00,0
川内野平,2022/04/16 04:00,0
川内野平,2022/04/16 05:00,0
川内野平,2022/04/16 06:00,0
川内野平,2022/04/16 07:00,0
川内野平,2022/04/16 09:00,0
川内野平,2022/04/16 10:00,0
川内野平,2022/04/16 11:00,0
川内野平,2022/04/16 12:00,0
川内野平,2022/04/16 13:00,0
川内野平,2022/04/16 15:00,0
川内野平,2022/04/16 16:00,0
川内野平,2022/04/16 18:00,0
川内野平,2022/04/16 19:00,0
川内野平,2022/04/16 20:00,0
川内野平,2022/04/16 21:00,0
川内野平,2022/04/17 00:00,0
川内野平,2022/04/17 01:00,0
川内野平,2022/04/17 02:00,0
川内野平,2022/04/17 03:00,0
川内野平,2022/04/17 05:00,0
川内野平,2022/04/17 06:00,0
川内野平,2022/04/17 07:00,0
川内野平,2022/04/17 09:00,0
川内野平,2022/04/17 10:00,0
川内野平,2022/04/17 11:00,0
川内野平,2022/04/17 12:00,0
川内野平,2022/04/17 13:00,0
川内野平,2022/04/17 14:00,0
川内野平,2022/04/17 15:00,0
川内野平,2022/04/17 16:00,0
川内野平,2022/04/17 17:00,0
川内野平,2022/04/17 19:00,0
川内野平,2022/04/17 20:00,0
川内野平,2022/04/17 21:00,0
川内野平,2022/04/17 22:00,0
川内野平,2022/04/17 23:00,0
川内野平,2022/04/18 00:00,0
川内野平,2022/04/18 01:00,0
川内野平,2022/04/18 02:00,0
川内野平,2022/04/18 03:00,0
川内野平,2022/04/18 04:00,0
川内野平,2022/04/18 05:00,0
川内野平,2022/04/18 06:00,0
川内野平,2022/04/18 07:00,0
川内野平,2022/04/18 08:00,0
川内野平,2022/04/18 09:00,0
川内野平,2022/04/18 10:00,0
川内野平,2022/04/18 11:00,0
川内野平,2022/04/18 12:00,0
川内野平,2022/04/18 13:00,0
川内野平,2022/04/18 14:00,0
川内野平,2022/04/18 15:00,0
川内野平,2022/04/18 16:00,0
川内野平,2022/04/18 17:00,0
川内野平,2022/04/18 18:00,0
川内野平,2022/04/18 19:00,0
川内野平,2022/04/18 21:00,0
川内野平,2022/04/18 22:00,0
川内野平,2022/04/18 23:00,0
川内野平,2022/04/19 00:00,0
川内野平,2022/04/19 01:00,0
川内野平,2022/04/19 02:00,0
川内野平,2022/04/19 03:00,0
川内野平,2022/04/19 04:00,0
川内野平,2022/04/19 05:00,0
川内野平,2022/04/19 06:00,0
川内野平,2022/04/19 07:00,0
川内野平,2022/04/19 08:00,0
川内野平,2022/04/19 09:00,0
川内野平,2022/04/19 10:00,0
川内野平,2022/04/19 11:00,0
川内野平,2022/04/19 12:00,0
川内野平,2022/04/19 13:00,0
川内野平,2022/04/19 14:00,0
川内野平,2022/04/19 15:00,0
川内野平,2022/04/19 16:00,0
川内野平,2022/04/19 17:00,0
川内野平,2022/04/19 18:00,0
川内野平,2022/04/19 19:00,0
川内野平,2022/04/19 20:00,0
川内野平,2022/04/19 21:00,0
川内野平,2022/04/19 22:00,0
川内野平,2022/04/19 23:00,0
川内野平,2022/04/20 00:00,0
川内野平,2022/04/20 01:00,0
川内野平,2022/04/20 02:00,0
川内野平,2022/04/20 03:00,0
川内野平,2022/04/20 04:00,0
川内野平,2022/04/20 05:00,0
川内野平,2022/04/20 09:00,0
川内野平,2022/04/20 10:00,0
川内野平,2022/04/20 11:00,0
川内野平,2022/04/20 12:00,0
川内野平,2022/04/20 13:00,0
川内野平,2022/04/20 14:00,0
川内野平,2022/04/20 16:00,0
川内野平,2022/04/20 17:00,0
川内野平,2022/04/20 18:00,0
川内野平,2022/04/20 19:00,0
川内野平,2022/04/20 20:00,0
川内野平,2022/04/20 21:00,0
川内野平,2022/04/20 23:00,0
川内野平,2022/04/21 00:00,0
川内野平,2022/04/21 01:00,0
川内野平,2022/04/21 02:00,0
川内野平,2022/04/21 03:00,0
川内野平,2022/04/21 04:00,0
川内野平,2022/04/21 05:00,0
川内野平,2022/04/21 06:00,0
川内野平,2022/04/21 07:00,0
川内野平,2022/04/21 08:00,0
川内野平,2022/04/21 09:00,0
川内野平,2022/04/21 10:00,0
川内野平,2022/04/21 11:00,0
川内野平,2022/04/21 12:00,0
川内野平,2022/04/21 13:00,0
川内野平,2022/04/21 14:00,0
川内野平,2022/04/21 15:00,0
川内野平,2022/04/21 16:00,0
川内野平,2022/04/21 17:00,0
川内野平,2022/04/21 18:00,0
川内野平,2022/04/21 19:00,0
川内野平,2022/04/21 20:00,0
川内野平,2022/04/21 21:00,0
川内野平,2022/04/21 22:00,0
川内野平,2022/04/21 23:00,0
川内野平,2022/04/22 00:00,0
川内野平,2022/04/22 01:00,0
川内野平,2022/04/22 02:00,0
川内野平,2022/04/22 03:00,0
川内野平,2022/04/22 04:00,0
川内野平,2022/04/22 05:00,0
川内野平,2022/04/22 06:00,0
川内野平,2022/04/22 07:00,0
川内野平,2022/04/22 09:00,0
川内野平,2022/04/22 10:00,0
川内野平,2022/04/22 11:00,0
川内野平,2022/04/22 12:00,0
川内野平,2022/04/22 13:00,0
川内野平,2022/10/25 11:00,0
川内野平,2022/10/25 12:00,0
川内野平,2022/10/25 13:00,0
川内野平,2022/10/25 15:00,0
川内野平,2022/10/25 16:00,0
川内野平,2022/10/25 17:00,0
川内野平,2022/10/25 19:00,0
川内野平,2022/10/25 20:00,0
川内野平,2022/10/25 21:00,0
川内野平,2022/10/25 22:00,0
川内野平,2022/10/25 23:00,0
川内野平,2022/10/26 00:00,0
川内野平,2022/10/26 01:00,0
川内野平,2022/10/26 02:00,0
川内野平,2022/10/26 03:00,0
川内野平,2022/10/26 04:00,0
川内野平,2022/10/26 05:00,0
川内野平,2022/10/26 06:00,0
川内野平,2022/10/26 07:00,0
川内野平,2022/10/26 08:00,0
川内野平,2022/10/26 09:00,0
川内野平,2022/10/26 10:00,0
川内野平,2022/10/26 12:00,0
川内野平,2022/10/26 14:00,0
川内野平,2022/10/26 15:00,0
川内野平,2022/10/26 16:00,0
川内野平,2022/10/26 17:00,0
川内野平,2022/10/26 18:00,0
川内野平,2022/10/26 19:00,0
川内野平,2022/10/26 20:00,0
川内野平,2022/10/26 21:00,0
川内野平,2022/10/26 23:00,0
川内野平,2022/10/27 00:00,0
川内野平,2022/10/27 01:00,0
川内野平,2022/10/27 02:00,0
川内野平,2022/10/27 03:00,0
川内野平,2022/10/27 04:00,0
川内野平,2022/10/27 05:00,0
川内野平,2022/10/27 06:00,0
川内野平,2022/10/27 07:00,0
川内野平,2022/10/27 08:00,0
川内野平,2022/10/28 15:00,0
川内野平,2022/10/28 16:00,0
川内野平,2022/10/28 17:00,0
川内野平,2022/10/28 18:00,0
川内野平,2022/10/28 19:00,0
川内野平,2022/10/28 20:00,0
川内野平,2022/10/28 21:00,0
川内野平,2022/10/28 22:00,0
川内野平,2022/10/28 23:00,0
川内野平,2022/10/29 00:00,0
川内野平,2022/10/29 01:00,0
川内野平,2022/10/29 02:00,0
川内野平,2022/10/29 03:00,0
川内野平,2022/10/29 04:00,0
川内野平,2022/10/29 05:00,0
川内野平,2022/10/29 06:00,0
川内野平,2022/10/29 07:00,0
川内野平,2022/10/29 08:00,0
川内野平,2022/10/29 09:00,0
川内野平,2022/10/29 10:00,0
川内野平,2022/10/29 11:00,0
川内野平,2022/10/29 12:00,0
川内野平,2022/10/29 14:00,0
川内野平,2022/10/29 15:00,0
川内野平,2022/10/29 16:00,0
川内野平,2022/10/29 17:00,0
川内野平,2022/10/29 18:00,0
川内野平,2022/10/29 19:00,0
川内野平,2022/10/29 20:00,0
川内野平,2022/10/29 21:00,0
川内野平,2022/10/29 23:00,0
川内野平,2022/10/30 00:00,0
川内野平,2022/10/30 01:00,0
川内野平,2022/10/30 02:00,0
川内野平,2022/10/30 03:00,0
川内野平,2022/10/30 04:00,0
川内野平,2022/10/30 05:00,0